Location: Unspecified
(17.6330°N, 0.0000°E)
Time: 07:34:56
(UTC+00:00)

A-11 Canister half - Pass Details

Date: 20 June 2019
Orbit: 1514 x 1685 km, 47.2° (Epoch: 22 July)

Event Time Altitude Azimuth Distance (km) Brightness Sun altitude
Rises 18:33:41 0° 318° (NW) 4,698 13.0 -0.1°
Reaches altitude 10° 18:36:45 10° 319° (NW) 3,698 12.4 -0.7°
Maximum altitude 18:46:04 82° 47° (NE) 1,526 9.1 -2.8°
Drops below altitude 10° 18:55:18 10° 135° (SE) 3,672 10.4 -4.7°
Enters shadow 18:57:17 - 135° (SE) 4,316 10.7 -5.2°
Sets 18:58:20 0° 136° (SE) 4,662 - -5.4°
